Lake Tahoe, CA

7:49 AM PST on February 10, 2016 (GMT -0800)
Lake Tahoe | | Change Station
CLOSE
Current Station
Airport
Location: South Lake Tahoe,
Elevation: 6263 ft
Nearby Weather Stations

Elev 6263 ft 38.90 °N, 120.00 °W | Updated 56 minutes ago

Clear
Clear
22 °F
Feels Like 22 °F
N
0
Wind Variable Wind from North

Today
High -- | Low -- °F
--% Chance of Precip.
Yesterday
High -- | Low -- °F
Precip. -- in
Pressure 30.48 in
Visibility 10.0 miles
Clouds Clear
Dew Point 19 °F
Humidity 89%
Rainfall 0.00 in
Snow Depth Not available.
6:57 AM 5:31 PM
Waxing Crescent, 6% visible
METAR KTVL 101453Z AUTO 00000KT 10SM CLR M06/M07 A3042 RMK AO2 SLP319 I1001 I3001 T10561072 53002
Pressure 30.48 in
Visibility 10.0 miles
Clouds Clear
Dew Point 19 °F
Humidity 89%
Rainfall 0.00 in
Snow Depth Not available.
6:57 AM 5:31 PM
Waxing Crescent, 6% visible
METAR KTVL 101453Z AUTO 00000KT 10SM CLR M06/M07 A3042 RMK AO2 SLP319 I1001 I3001 T10561072 53002

10-Day Weather Forecast

Almanac

Astronomy

Feb. 10, 2016 Rise Set
Actual Time
Civil Twilight
Nautical Twilight
Astronomical Twilight
Moon
Length of Visible Light
Length of Day
Tomorrow will be .
, % of the Moon is Illuminated

Today's Extremes

State Highs State Lows

Community

WunderPhotos

Upload Photos

1,891,863 photos uploaded!

WunderBlog® & News

Nearby

Air Quality

  Air Quality AQ Index Pollutant
Not available.

Snow Depth

Station Depth Elevation

Earthquake Activity

City Distance Mag. Time & Date
Minimum magnitude displayed is 2.5.

Coastal Water Temperatures

Place Temperature

Stations

Nearby Weather Stations

Station Location Temp. Windchill Dew Point Humidity Wind Precip. Elev Updated Type
                   

Watches & Warnings

There are currently no watches in effect.